User: anonymous   Login
Location: Les Jeannots
(43.2262°N, 5.5774°E)
Time: 22:32:31
(UTC+00:00)
Language:

Nadezhda 1 Rocket - Orbit

View from above orbital plane
View from above orbital plane
View from above satellite
View from above satellite

Ground track
Ground track

The orbit data is extracted from the following two-line orbital elements,

1 20104U 89050B   20270.35544823  .00000016  00000-0  18538-6 0  9992
2 20104  82.9603   3.2797 0044894  72.5748 288.0310 13.77313809569405
Epoch (UTC): 26 September 2020 08:31:50
Eccentricity: 0.0044894
inclination: 82.9603°
perigee height: 940 km
apogee height: 1006 km
right ascension of ascending node: 3.2797°
argument of perigee: 72.5748°
revolutions per day: 13.77313809
mean anomaly at epoch: 288.0310°
orbit number at epoch: 56940

The dashed part of the orbit path shows where the satellite is in the earth's shadow,  

DLR